www.pogodaiklimat.ru

Погода и климат >> Архив погоды >> Индонезия >> Меулабох


ПОГОДА в Меулабохе

  • Прогноз погоды в Меулабохе
  • Монитор погоды в Меулабохе

АРХИВ ПОГОДЫ в Меулабохе

Время (UTC), дата Ветер
(напр.,м/с)
 
Видим.   Явления Облачность Т
(С)
Тd
(С)
f
(%)
Тe
(С)
Тes
(С)
Комфортность P
(гПа)
Po
(гПа)
Тmin
(С)
Tmax
(С)
R
(мм)
R24
(мм)
S
(см)
09 17.04 ЮЗ 4 8000 м 9/5 500 м
[Sc As op Ci sp]
+31.0 +27.1 80 +49 +51 опасность
перегрева
1007.6 1007.0
12 17.04 штиль 0 6000 м 9/5 480 м
[Cu med, cong Ac As Ci sp]
+29.6 +25.6 79 +44 +44 опасность
перегрева
1009.1 1008.5 +32.2
15 17.04 СВ 1 7000 м 9/5 500 м
[Sc Ac lent Ci fib]
+27.0 +26.3 96 +41 +41 опасность
перегрева
1010.7 1010.1
18 17.04 В 1 7000 м зарница 8/4 500 м
[Cu med, cong Ac As Ci fib]
+26.2 +25.5 96 +38 +38 очень
душно
1010.2 1009.6
21 17.04 СВ 1 6000 м 9/5 500 м
[Sc Ac As Ci sp]
+25.1 +24.0 94 +35 +35 очень
душно
1008.8 1008.2
00 18.04 штиль 0 7000 м 8/4 540 м
[Sc Ac As Ci sp]
+24.7 +24.1 96 +34 +34 очень
душно
1009.7 1009.1 +24.5
03 18.04 З 1 10 км 6/3 540 м
[Cu med, cong Ac trans Ci fib]
+29.0 +25.8 83 +43 +52 опасность
перегрева
1012.0 1011.4
06 18.04 ЮЗ 2 10 км 8/4 500 м
[Sc Ac und Ci sp]
+31.9 +27.0 75 +50 +59 опасность
перегрева
1011.2 1010.6
09 18.04 ЮЗ 2 8000 м гроза без осадков 9/6 480 м
[Cb cap Ac As Ci sp]
+31.8 +26.2 72 +48 +50 опасность
перегрева
1007.8 1007.2
12 18.04 З 4 3000 м гроза с градом 10/6 400 м
[Cb cap Ac und Ci fib]
+27.6 +26.8 95 +43 +43 опасность
перегрева
1008.6 1008.0 +30.6 1
15 18.04 СВ 1 2000 м гроза, ливневой дождь 10/8
[Cb cap Ac cuf]
+24.5 +24.2 98 +34 +34 очень
душно
1011.9 1011.3 80
18 18.04 СВ 1 3000 м слаб. дождь {гроза} 10/8
[Cb cap Ac cuf]
+24.5 +24.2 98 +34 +34 очень
душно
1011.7 1011.1 3
21 18.04 СВ 1 3000 м слаб. дождь 10/8 450 м
[Cb cap Ac lent]
+24.4 +24.3 99 +34 +34 очень
душно
1010.0 1009.4 5
00 19.04 СВ 1 800 м дождь {гроза} 10/8 420 м
[Cb cap Ac lent]
+24.2 +24.1 99 +33 +33 очень
душно
1010.5 1009.9 +23.9 14
03 19.04 СВ 2 7000 м 8/4 570 м
[Sc Ac und Ci sp]
+28.2 +25.0 83 +41 +46 опасность
перегрева
1012.8 1012.2
06 19.04 С 1 10 км 8/4 540 м
[Sc As trans Ci sp]
+31.5 +25.2 69 +45 +55 опасность
перегрева
1008.6 1008.0 7
09 19.04 З 4 8000 м 9/6 400 м
[Cb cap Ac As Ci sp]
+31.0 +27.7 83 +51 +52 опасность
перегрева
1005.6 1005.0
12 19.04 ЮЗ 3 6000 м 8/4 500 м
[Sc Ac As Ci sp]
+28.9 +24.9 79 +41 +41 опасность
перегрева
1007.5 1006.9 +34.0
15 19.04 С 1 6000 м 9/4 500 м
[Cb calv Ac As Ci sp]
+26.5 +24.9 91 +38 +38 очень
душно
1011.2 1010.6
18 19.04 СВ 1 6000 м 8/4 500 м
[Sc Ac trans Ci sp]
+25.4 +23.2 88 +34 +34 очень
душно
1010.0 1009.4
21 19.04 СВ 1 6000 м 6/3 600 м
[Sc Ac trans Ci fib]
+24.8 +23.6 93 +34 +34 очень
душно
1008.0 1007.4
00 20.04 СЗ 1 8000 м 5/3 540 м
[Cu med, cong As trans Cc]
+24.6 +23.8 95 +33 +34 очень
душно
1009.0 1008.4 +23.8 7
03 20.04 С 2 10 км 5/4 600 м
[Sc As op Ci sp]
+29.8 +26.1 81 +45 +53 опасность
перегрева
1010.1 1009.5
06 20.04 З 3 10 км 5/4 600 м
[Sc As op Ci sp]
+30.9 +27.1 80 +49 +59 опасность
перегрева
1008.8 1008.1
09 20.04 ЮЗ 4 10 км 6/4 540 м
[Cu med, cong Ac lent Ci sp]
+31.1 +27.3 80 +49 +53 опасность
перегрева
1005.5 1004.8
12 20.04 З 1 7000 м 8/4 540 м
[Sc Ac trans Ci sp]
+29.2 +24.7 77 +42 +42 опасность
перегрева
1006.1 1005.5 +31.9
15 20.04 В 2 6000 м 9/4 500 м
[Sc Ac As Ci sp]
+26.4 +24.8 91 +38 +38 очень
душно
1009.0 1008.4
18 20.04 В 1 6000 м 8/4 500 м
[Sc As op Ci sp]
+25.0 +24.5 97 +35 +35 очень
душно
1008.0 1007.4
21 20.04 СВ 1 6000 м 8/4 500 м
[Sc Ac trans Ci sp]
+25.2 +24.7 97 +35 +35 очень
душно
1005.9 1005.3
00 21.04 С 1 8000 м 5/3 570 м
[Sc As trans Ci sp]
+25.2 +24.5 96 +35 +35 очень
душно
1006.6 1006.0 +24.6
03 21.04 С 1 10 км 5/3 540 м
[Sc Ac As Ci sp]
+31.0 +25.4 72 +45 +54 опасность
перегрева
1007.5 1006.9
06 21.04 З 4 10 км 5/3 540 м
[Sc Ac As Ci sp]
+30.5 +29.0 92 +53 +63 опасность
перегрева
1005.8 1005.2
09 21.04 З 3 10 км 6/4 500 м
[Cu med, cong Ac As Ci sp]
+31.6 +27.4 78 +50 +54 опасность
перегрева
1004.3 1003.7
12 21.04 СЗ 2 7000 м 9/6 420 м
[Cb cap Ac As Ci sp]
+30.2 +27.3 85 +48 +48 опасность
перегрева
1005.4 1004.8 +32.8
15 21.04 В 2 6000 м 9/4 500 м
[Sc Ac und Ci sp]
+27.3 +25.3 89 +40 +40 очень
душно
1007.0 1006.4
18 21.04 штиль 0 6000 м 9/4 500 м
[Sc Ac und Ci sp]
+26.8 +25.6 93 +39 +39 очень
душно
1006.3 1005.7
21 21.04 СВ 2 6000 м 5/3 600 м
[Sc As trans Ci sp]
+25.0 +24.5 97 +35 +35 очень
душно
1004.7 1004.1
00 22.04 штиль 0 6000 м 6/3 600 м
[Sc As trans Ci sp]
+25.4 +24.9 97 +36 +36 очень
душно
1006.0 1005.4 +24.6
03 22.04 ЮВ 1 10 км 5/3 570 м
[Sc As trans Ci fib]
+30.4 +26.7 81 +47 +57 опасность
перегрева
1007.5 1006.9
06 22.04 Ю 3 11 км 5/4 570 м
[Cu med, cong As trans Ci fib]
+31.7 +27.1 77 +50 +61 опасность
перегрева
1006.5 1005.9
09 22.04 ЮЗ 4 10 км 5/4 500 м
[Sc Ac As Ci sp]
+31.6 +29.3 88 +56 +59 опасность
перегрева
1004.5 1004.0
12 22.04 Ю 2 7000 м 9/6 400 м
[Cb cap Ac As Ci sp]
+29.7 +27.7 89 +48 +48 опасность
перегрева
1005.6 1005.0 +33.0
15 22.04 СВ 1 8000 м 9/6 540 м
[Sc Ac As Ci fib]
+27.1 +25.6 92 +40 +40 очень
душно
1007.6 1007.0
18 22.04 СВ 1 7000 м зарница 8/5 500 м
[Cu med, cong Ac As Ci fib]
+26.4 +26.1 98 +39 +39 очень
душно
1007.1 1006.5
21 22.04 С 1 6000 м 8/4 500 м
[Sc Ac As Ci sp]
+25.9 +24.8 94 +37 +37 очень
душно
1006.1 1005.5
00 23.04 штиль 0 7000 м 9/5 500 м
[Sc Ac As Ci sp]
+25.6 +24.8 95 +36 +36 очень
душно
1007.8 1007.2 +25.4
03 23.04 В 1 10 км 8/4 500 м
[Sc Ac trans Ci sp]
+29.8 +25.4 77 +44 +50 опасность
перегрева
1009.6 1009.0
06 23.04 ЮЗ 2 10 км 9/4 500 м
[Sc Ac trans Ci sp]
+29.4 +27.0 87 +46 +54 опасность
перегрева
1008.1 1007.5
09 23.04 Ю 2 8000 м 9/5 500 м
[Sc Ac As Ci sp]
+32.0 +26.4 72 +48 +51 опасность
перегрева
1005.6 1005.0
12 23.04 В 1 7000 м 9/5 500 м
[Sc Ac As Ci sp]
+28.8 +25.6 83 +43 +43 опасность
перегрева
1007.1 1006.5 +32.4
15 23.04 СВ 1 7000 м гроза без осадков 10/6
[Cb cap Ac cuf]
+26.9 +25.7 93 +40 +40 очень
душно
1008.9 1008.3
18 23.04 штиль 0 6000 м {гроза} 9/4 570 м
[Sc Ac und Ci sp]
+25.5 +24.1 92 +35 +35 очень
душно
1008.4 1007.8
21 23.04 СВ 2 7000 м 6/4 500 м
[Sc Ac As Ci fib]
+24.7 +24.4 98 +34 +34 очень
душно
1006.5 1005.9
00 24.04 СВ 1 7000 м гроза без осадков 9/6 500 м
[Cb cap Ac As Ci fib]
+25.1 +24.8 98 +35 +36 очень
душно
1008.6 1008.0 +24.5
03 24.04 З 2 10 км 9/5 500 м
[Sc Ac As Ci sp]
+30.1 +25.7 77 +44 +49 опасность
перегрева
1010.1 1009.5
06 24.04 З 3 8000 м 9/5 500 м
[Cu med, cong Ac As Ci sp]
+29.3 +28.7 97 +51 +56 опасность
перегрева
1008.1 1007.5

 

Местоположение метеостанции Меулабох (Индонезия): широта 4.25 долгота 96.12 высота над уровнем моря 90 м.

В архиве по умолчанию представлена погода в Меулабохе за последнюю неделю. Архивные данные за месяц целиком и за предыдущие месяцы, начиная с января 2011 года, Вы можете получить, выбрав интересующий диапазон дат из раскрывающегося списка и нажав кнопку "Ввод!".


*Определитесь, кто Вы:
робот инопланетянин человек

Внимание! Время в таблицах - всемирное. Для получения местного времени необходимо прибавить поправку, которая равна 7 ч.

Смотрите также архив погоды в соседних городах и на ближайших метеорологических станциях:

Погода в Банда-Ачехе (Индонезия) (161 км)
Погода в Лхоксёмаве (Индонезия) (162 км)
Погода в Сабанге (Индонезия) (201 км)
Погода в Белаване (Индонезия) (291 км)
Погода в Медан Полония (Индонезия) (294 км)
Погода в Гунунгситоли (Индонезия) (349 км)
Погода в Сиболге (Индонезия) (429 км)
Погода в Лангкави (Малайзия) (462 км)
Погода в Пенанге (Малайзия) (474 км)
Погода на Пхукете (Таиланд) (476 км)

Пояснения к столбцам:

Ветер - указаны скорость ветра в м/с - средняя за 10 мин, порывы в срок и между сроками (в фигурных скобках) и направление, откуда дует ветер: С - северный, СВ - северо-восточный, В - восточный, ЮВ - юго-восточный, Ю - южный, ЮЗ - юго-западный, З - западный, СЗ - северо-западный.
Видимость - горизонтальная дальность видимости в метрах или километрах. При видимости от 1 до 10 км при отсутствии осадков обычно наблюдается дымка, при ухудшении видимости до 1 км и менее - туман. В сухую погоду видимость может ухудшаться дымом, пылью или мглою.
Явления - указаны атмосферные явления, наблюдавшиеся в срок или в последний час перед сроком; фигурными скобками обозначены явления, наблюдавшиеся между сроками (за 1-3 часа до срока); квадратными скобками обозначены град или гололедные отложения с указанием их диаметра в мм.
Облачность - указаны через наклонную черту общая и нижняя облачность в баллах и высота нижней границы облаков в метрах; квадратными скобками обозначены формы облаков: Ci - перистые, Cs - перисто-слоистые, Cc - перисто-кучевые, Ac - высококучевые, As - высокослоистые, Sc - слоисто-кучевые, Ns - слоисто-дождевые, Cu - кучевые, Cb - кучево-дождевые. Подробнее классификацию облаков см. в Атласе облаков (PDF).
T - Температура воздуха - температура, измеренная на высоте 2 м над землей.
Td - Температура точки росы - температура, при понижении до которой содержащийся в воздухе водяной пар достигнет насыщения.
f - Относительная влажность воздуха - влажноcть воздуха, измеренная на высоте 2 м над землей.
Te - Эффективная температура - температура, которую ощущает одетый по сезону человек в тени. Характеристика душности погоды. При расчете учитывается влияние влажности воздуха и скорости ветра на теплоощущения человека.
Tes - Эффективная температура на солнце - температура, которую ощущает человек, с поправкой на солнечный нагрев. Характеристика знойности погоды. Зависит от высоты солнца над горизонтом, облачности и скорости ветра. Ночью, в пасмурную погоду, а также при ветре 12 м/с и более поправка равна нулю.
P - Атмосферное давление - приведенное к уровню моря атмосферное давление.
Po - Атмосферное давление - измеренное на уровне метеостанции атмосферное давление.
Tmin - Минимальная температура - минимум температуры воздуха на высоте 2 м над землей.
Tmax - Максимальная температура - максимум температуры воздуха на высоте 2 м над землей.
R - Количество осадков - Количество выпавших осадков за период времени, мм. При наведении курсора мыши на число - период времени, за который выпало указанное количество осадков.
R24 - Количество осадков - Количество выпавших осадков за 24 часа, мм.
S - Снежный покров - Высота снежного покрова, см. При наведении курсора мыши на число - состояние снежного покрова и степень покрытия местности в баллах.